Flag for Germany Weather past 2 weeks in Willich, North Rhine-Westphalia, Germany

Now
84 °F

Clear.


Feels Like: 82 °F
Forecast: 65 / 90 °F
Wind: 7 mph from Northeast

Location: Monchengladbach Airport

Current Time: Jun 30, 2015 at 7:01:41 PM

Latest Report: Jun 30, 2015 at 6:20 PM


Visibility: 10 mi

Pressure: 30.09 "Hg

Humidity: 31%

Dew point: 50 °F

Location of WillichLocation

Historic Weather in Willich — Graph

°F

Willich temperature yesterday

Maximum temperature yesterday: 77 °F (at 3:50 PM)
Minimum temperature yesterday: 66 °F (at 7:50 AM)
Average temperature yesterday: 72 °F

Past Weeks' High & Low Weather Summary

 TemperatureHumidityPressure
High84 °F (Jun 30, 5:50 PM)100% (Jun 18, 7:50 AM)30.30 "Hg (Jun 18, 7:50 AM)
Low50 °F (Jun 22, 8:20 PM)29% (Jun 30, 5:50 PM)29.71 "Hg (Jun 22, 6:20 PM)
Average65 °F65%30.08 "Hg
* Reported Jun 15 5:20 PM — Jun 30 5:50 PM, Willich, Weather by CustomWeather, © 2015

Note: Actual official high and low records may vary slightly from our data, if they occured in-between our weather recording intervals... More about our weather records

Advertising

Willich weather history for previous 24 hours

 ConditionsComfort  
Time TempWeatherWind HumidityBarometerVisibility
5:50 PM
Tue, Jun 30
84 °FClear.5 mph29%30.09 "Hg10 mi
4:50 PM82 °FClear.6 mph32%30.09 "Hg10 mi
4:20 PM82 °FClear.5 mph32%30.12 "Hg10 mi
3:50 PM82 °FClear.6 mph32%30.12 "Hg10 mi
2:50 PM81 °FClear.5 mph32%30.15 "Hg10 mi
2:20 PM81 °FClear.5 mph34%30.15 "Hg10 mi
1:50 PM81 °FSunny.3 mph37%30.15 "Hg10 mi
1:20 PM77 °FSunny.3 mph42%30.15 "Hg10 mi
12:50 PM77 °FSunny.2 mph42%30.18 "Hg10 mi
12:20 PM77 °FSunny.5 mph47%30.18 "Hg10 mi
11:50 AM75 °FSunny.3 mph57%30.18 "Hg10 mi
11:20 AM75 °FSunny.3 mph57%30.18 "Hg10 mi
10:50 AM73 °FSunny.3 mph57%30.18 "Hg10 mi
10:20 AM73 °FSunny.2 mph61%30.18 "Hg10 mi
9:50 AM70 °FSunny.2 mph69%30.18 "Hg10 mi
9:20 AM68 °FSunny.2 mph73%30.18 "Hg10 mi
8:50 AM68 °FSunny.3 mph73%30.18 "Hg10 mi
8:20 AM66 °FSunny.1 mph78%30.18 "Hg10 mi
7:50 AM64 °FSunny.1 mph88%30.18 "Hg10 mi
8:20 PM
Mon, Jun 29
73 °FClear.6 mph50%30.15 "Hg10 mi
7:50 PM75 °FClear.6 mph47%30.15 "Hg10 mi
7:20 PM75 °FClear.7 mph44%30.15 "Hg10 mi
Weather by CustomWeather, © 2015

See weather overviewHow to use our weather pages